sat.trackr.live / text

‹ back to catalog

STARLINK-2379

NORAD 47798 · 2021-018M

PAYLOAD ACTIVE UNKNOWN

§ Identity

Operator
Country
US
Launch date
2021-03-11
Launch site
AFETR
Launch vehicle
Mass (kg)
RCS (m²)

Purposes: comms

External: N2YO · Heavens-Above · Gunter

§ Orbital elements

Epoch: 2026-05-25T00:16:18.645024Z

Period
94.01 min
Inclination
53.1580°
Eccentricity
0.0001549
Mean motion
15.31712039 rev/d
Perigee alt
469.6 km
Apogee alt
471.8 km
Semi-major
6,848.8 km
B*
7.5809e-5
RAAN
244.1670°
Arg perigee
85.3858°
Mean anomaly
274.7320°
Rev number
28,845

§ Raw data

STARLINK-23791 47798U 21018M   26145.01132691  .00001989  00000+0  75809-4 0  99972 47798  53.1580 244.1670 0001549  85.3858 274.7320 15.31712039288453

JSON: /api/v1/satellites/47798 · /tle

For live sub-satellite position, see the globe view (requires WebGL).

§ Visibility from observer

Set your observer location to see the next 7 days of passes ≥ 10°. The values pass through the URL so the page stays shareable.

No JS? Fill the form by hand. The geolocation button needs JavaScript.